Ellsworth AFB, SD

9:13 PM MDT on April 22, 2018 (GMT -0600)
Ellsworth Air Force Base

Weather History for KRCA - November, 2012

Change the Weather History Date:

Thursday, November 1, 2012

  Actual Average Record
Temperature  
Mean Temperature 40 °F -  
Max Temperature 48 °F 49 °F 74 °F (2008)
Min Temperature 33 °F 28 °F 5 °F (2002)
Degree Days  
Heating Degree Days 25    
Moisture  
Dew Point 37 °F    
Average Humidity 95    
Maximum Humidity 100    
Minimum Humidity 77    
Precipitation  
Precipitation 0.00 in - - ()
Sea Level Pressure  
Sea Level Pressure 29.94 in    
Wind  
Wind Speed 10 mph (ESE)    
Max Wind Speed 18 mph    
Max Gust Speed -    
Visibility 2 miles    
Events Fog , Rain    
Averages and records for this station are not official NWS values.
T = Trace of Precipitation, MM = Missing Value Source: NWS Daily Summary

Daily Weather History Graph

Daily Weather History Graph

Search for Another Location

Airport or City:

Astronomy

Nov. 01, 2012 Rise Set
Actual Time 7:29 AM MDT 5:41 PM MDT
Civil Twilight 6:59 AM MDT 6:11 PM MDT
Nautical Twilight 6:25 AM MDT 6:45 PM MDT
Astronomical Twilight 5:51 AM MDT 7:19 PM MDT
Moon 7:35 PM MDT (11/1) 10:08 AM MDT (11/1)
Length of Visible Light 11h 11m
Length of Day
10h 11m
Waning Gibbous, 92% of the Moon is Illuminated
Nov 1
Waning Gibbous
Nov 6
Last Quarter
Nov 13
New
Nov 20
First Quarter
Nov 28
Full

Hourly Weather History & Observations

Time (MDT) Temp. Windchill Dew Point Humidity Pressure Visibility Wind Dir Wind Speed Gust Speed Precip Events Conditions
12:55 AM 38.5 °F 34.1 °F 34.5 °F 86% 30.06 in 10.0 mi SE 5.8 mph - N/A   Clear
1:55 AM 37.0 °F 32.4 °F 34.7 °F 91% 30.04 in 10.0 mi SE 5.8 mph - N/A   Clear
2:15 AM 37.4 °F 34.9 °F 35.6 °F 93% 30.04 in 10.0 mi East 3.5 mph - N/A   Light Drizzle
2:55 AM 35.6 °F 30.7 °F 34.3 °F 95% 30.04 in 7.0 mi SE 5.8 mph - 0.00 in   Heavy Drizzle
3:55 AM 37.4 °F 31.4 °F 35.8 °F 94% 30.02 in 10.0 mi SE 8.1 mph - 0.00 in   Heavy Drizzle
4:14 AM 35.6 °F 29.2 °F 35.6 °F 100% 30.02 in 7.0 mi SE 8.1 mph - N/A   Drizzle
4:23 AM 35.6 °F 28.6 °F 33.8 °F 93% 30.01 in 2.5 mi ESE 9.2 mph - N/A   Drizzle
4:24 AM 35.6 °F 28.6 °F 33.8 °F 93% 30.01 in 2.0 mi ESE 9.2 mph - N/A   Drizzle
4:25 AM 35.6 °F 28.6 °F 33.8 °F 93% 30.01 in 1.5 mi ESE 9.2 mph - N/A   Drizzle
4:26 AM 35.6 °F 28.0 °F 33.8 °F 93% 30.01 in 1.2 mi ESE 10.4 mph - N/A   Drizzle
4:27 AM 35.6 °F 28.0 °F 33.8 °F 93% 30.01 in 1.0 mi ESE 10.4 mph - N/A   Drizzle
4:30 AM 33.8 °F 26.4 °F 33.8 °F 100% 30.01 in 0.8 mi ESE 9.2 mph - N/A   Drizzle
4:40 AM 35.6 °F 28.0 °F 33.8 °F 93% 30.01 in 0.8 mi ESE 10.4 mph - N/A   Drizzle
4:42 AM 35.6 °F 28.0 °F 33.8 °F 93% 30.01 in 0.5 mi ESE 10.4 mph - N/A Fog Drizzle
4:45 AM 35.6 °F 28.0 °F 33.8 °F 93% 30.01 in 0.5 mi ESE 10.4 mph - N/A Fog Drizzle
4:48 AM 35.6 °F 28.0 °F 33.8 °F 93% 30.01 in 0.5 mi ESE 10.4 mph - N/A Fog Drizzle
4:50 AM 35.6 °F 28.0 °F 33.8 °F 93% 30.01 in 0.2 mi ESE 10.4 mph - N/A Fog Drizzle
4:55 AM 34.9 °F 26.6 °F 34.3 °F 98% 30.01 in 0.2 mi ESE 11.5 mph - 0.00 in Fog Drizzle
4:58 AM 35.6 °F 27.5 °F 33.8 °F 93% 30.01 in 0.2 mi ESE 11.5 mph - N/A Fog Drizzle
5:20 AM 33.8 °F 25.3 °F 33.8 °F 100% 30.01 in 0.2 mi SE 11.5 mph - N/A Fog Drizzle
5:25 AM 33.8 °F 25.3 °F 33.8 °F 100% 30.01 in 0.2 mi SE 11.5 mph - N/A Fog Drizzle
5:55 AM 34.7 °F 28.1 °F 34.2 °F 98% 30.01 in 0.2 mi SE 8.1 mph - 0.00 in Fog Drizzle
6:55 AM 35.4 °F 25.6 °F 35.1 °F 99% 29.99 in 0.2 mi SSE 16.1 mph - 0.00 in Fog Drizzle
7:27 AM 35.6 °F 25.9 °F 35.6 °F 100% 29.99 in 0.2 mi SSE 16.1 mph - N/A Fog Drizzle
7:33 AM 35.6 °F 26.2 °F 35.6 °F 100% 30.00 in 0.2 mi SSE 15.0 mph - N/A Fog Drizzle
7:55 AM 36.5 °F 26.3 °F 36.3 °F 99% 30.01 in 0.2 mi SSE 18.4 mph - 0.00 in Fog Drizzle
8:55 AM 37.2 °F 28.7 °F 37.0 °F 99% 30.01 in 0.2 mi SSE 13.8 mph - 0.00 in Fog , Rain Light Rain
9:04 AM 37.4 °F 27.8 °F 37.4 °F 100% 30.00 in 0.2 mi SSE 17.3 mph - N/A Fog Drizzle
9:55 AM 37.9 °F 28.9 °F 37.6 °F 99% 29.99 in 0.2 mi SSE 16.1 mph - 0.00 in Fog Drizzle
10:13 AM 37.4 °F 27.8 °F 37.4 °F 100% 30.00 in 0.2 mi SSE 17.3 mph - N/A Fog Drizzle
10:36 AM 39.2 °F 30.8 °F 37.4 °F 93% 30.00 in 0.2 mi SSE 15.0 mph - N/A Fog Light Drizzle
10:55 AM 38.3 °F 29.7 °F 38.1 °F 99% 29.99 in 0.2 mi SSE 15.0 mph - 0.00 in Fog Light Drizzle
11:55 AM 39.4 °F 31.1 °F 39.0 °F 99% 29.97 in 0.2 mi SSE 15.0 mph - 0.00 in Fog Light Drizzle
12:03 PM 39.2 °F 30.5 °F 39.2 °F 100% 29.97 in 0.5 mi SSE 16.1 mph - N/A Fog Light Drizzle
12:22 PM 39.2 °F 32.5 °F 39.2 °F 100% 29.96 in 0.8 mi SSE 10.4 mph - N/A   Light Drizzle
12:33 PM 39.2 °F 30.8 °F 39.2 °F 100% 29.96 in 0.5 mi SSE 15.0 mph - N/A Fog Light Drizzle
12:38 PM 39.2 °F 30.8 °F 39.2 °F 100% 29.96 in 0.8 mi South 15.0 mph - N/A   Mist
12:43 PM 39.2 °F 30.2 °F 39.2 °F 100% 29.96 in 1.0 mi SSE 17.3 mph - N/A   Mist
12:46 PM 39.2 °F 30.5 °F 39.2 °F 100% 29.96 in 0.8 mi SSE 16.1 mph - N/A   Mist
12:55 PM 39.6 °F 31.0 °F 39.4 °F 99% 29.94 in 0.8 mi SSE 16.1 mph - 0.00 in   Mist
1:06 PM 39.2 °F 31.6 °F 39.2 °F 100% 29.94 in 1.0 mi SSE 12.7 mph - N/A   Mist
1:11 PM 39.2 °F 30.8 °F 39.2 °F 100% 29.93 in 1.2 mi SSE 15.0 mph - N/A   Overcast
1:16 PM 39.2 °F 31.2 °F 39.2 °F 100% 29.93 in 2.0 mi SSE 13.8 mph - N/A   Overcast
1:20 PM 39.2 °F 30.8 °F 39.2 °F 100% 29.93 in 3.0 mi SSE 15.0 mph - N/A   Overcast
1:55 PM 41.4 °F 33.3 °F 39.0 °F 91% 29.90 in 8.0 mi SSE 16.1 mph - N/A   Overcast
2:29 PM 42.8 °F 36.2 °F 39.2 °F 87% 29.90 in 10.0 mi SSE 12.7 mph - N/A   Overcast
2:41 PM 42.8 °F 35.8 °F 39.2 °F 87% 29.88 in 10.0 mi SSE 13.8 mph - N/A   Overcast
2:47 PM 44.6 °F 37.8 °F 39.2 °F 81% 29.88 in 10.0 mi SSE 15.0 mph - N/A   Overcast
2:55 PM 44.2 °F 36.7 °F 39.6 °F 84% 29.88 in 10.0 mi SSE 17.3 mph - N/A   Mostly Cloudy
3:05 PM 44.6 °F 37.8 °F 39.2 °F 81% 29.87 in 10.0 mi SSE 15.0 mph - N/A   Mostly Cloudy
3:08 PM 44.6 °F 37.8 °F 39.2 °F 81% 29.87 in 10.0 mi SSE 15.0 mph - N/A   Mostly Cloudy
3:55 PM 47.5 °F - 40.6 °F 77% 29.86 in 10.0 mi SSE 11.5 mph - N/A   Mostly Cloudy
4:55 PM 46.2 °F 42.2 °F 40.3 °F 80% 29.87 in 10.0 mi ESE 8.1 mph - N/A   Overcast
5:55 PM 42.6 °F 38.4 °F 39.2 °F 88% 29.88 in 10.0 mi East 6.9 mph - N/A   Overcast
6:10 PM 41.0 °F 34.7 °F 39.2 °F 93% 29.89 in 10.0 mi East 10.4 mph - N/A   Mostly Cloudy
6:19 PM 41.0 °F 34.7 °F 39.2 °F 93% 29.90 in 10.0 mi East 10.4 mph - N/A   Mostly Cloudy
6:55 PM 41.2 °F 35.5 °F 39.9 °F 95% 29.91 in 4.0 mi East 9.2 mph - N/A   Overcast
7:09 PM 41.0 °F 34.3 °F 39.2 °F 93% 29.90 in 2.5 mi East 11.5 mph - N/A   Overcast
7:11 PM 41.0 °F 34.7 °F 39.2 °F 93% 29.90 in 2.0 mi East 10.4 mph - N/A   Overcast
7:13 PM 41.0 °F 34.7 °F 39.2 °F 93% 29.90 in 2.0 mi East 10.4 mph - N/A   Overcast
7:14 PM 41.0 °F 34.7 °F 39.2 °F 93% 29.90 in 1.8 mi East 10.4 mph - N/A   Overcast
7:16 PM 41.0 °F 34.7 °F 39.2 °F 93% 29.90 in 1.5 mi East 10.4 mph - N/A   Overcast
7:22 PM 41.0 °F 35.8 °F 39.2 °F 93% 29.90 in 1.5 mi East 8.1 mph - N/A   Overcast
7:28 PM 41.0 °F 35.2 °F 39.2 °F 93% 29.90 in 1.2 mi East 9.2 mph - N/A   Overcast
7:34 PM 41.0 °F 35.8 °F 39.2 °F 93% 29.90 in 1.0 mi East 8.1 mph - N/A   Mist
7:55 PM 40.6 °F 36.0 °F 40.1 °F 98% 29.90 in 1.0 mi East 6.9 mph - N/A   Mist
7:59 PM 41.0 °F 37.1 °F 39.2 °F 93% 29.90 in 0.8 mi East 5.8 mph - N/A   Mist
8:02 PM 41.0 °F 35.2 °F 39.2 °F 93% 29.90 in 0.5 mi ENE 9.2 mph - N/A Fog Fog
8:04 PM 41.0 °F 35.2 °F 39.2 °F 93% 29.90 in 0.5 mi ENE 9.2 mph - N/A Fog Fog
8:06 PM 41.0 °F 35.2 °F 39.2 °F 93% 29.91 in 0.2 mi East 9.2 mph - N/A Fog Fog
8:08 PM 41.0 °F 35.2 °F 39.2 °F 93% 29.90 in 0.2 mi East 9.2 mph - N/A Fog Fog
8:09 PM 41.0 °F 35.8 °F 39.2 °F 93% 29.90 in 0.2 mi East 8.1 mph - N/A Fog Light Drizzle
8:10 PM 41.0 °F 35.8 °F 39.2 °F 93% 29.90 in 0.2 mi East 8.1 mph - N/A Fog Light Drizzle
8:11 PM 39.2 °F 33.6 °F 39.2 °F 100% 29.90 in 0.2 mi East 8.1 mph - N/A Fog Light Drizzle
8:20 PM 39.2 °F 33.6 °F 39.2 °F 100% 29.90 in 0.2 mi East 8.1 mph - N/A Fog Light Drizzle
8:28 PM 39.2 °F 33.0 °F 39.2 °F 100% 29.90 in 0.2 mi East 9.2 mph - N/A Fog Drizzle
8:55 PM 38.7 °F 32.4 °F 38.3 °F 99% 29.91 in 0.2 mi ENE 9.2 mph - 0.00 in Fog Drizzle
9:05 PM 39.2 °F 33.0 °F 37.4 °F 93% 29.90 in 0.2 mi East 9.2 mph - N/A Fog Heavy Drizzle
9:17 PM 37.4 °F 31.4 °F 37.4 °F 100% 29.91 in 0.2 mi East 8.1 mph - N/A Fog Heavy Drizzle
9:19 PM 37.4 °F 31.4 °F 37.4 °F 100% 29.91 in 0.2 mi East 8.1 mph - N/A Fog Heavy Drizzle
9:42 PM 37.4 °F 31.4 °F 37.4 °F 100% 29.91 in 0.2 mi East 8.1 mph - N/A Fog Drizzle
9:55 PM 37.8 °F 31.3 °F 37.6 °F 99% 29.90 in 0.2 mi East 9.2 mph - 0.00 in Fog Drizzle
10:05 PM 37.4 °F 32.1 °F 37.4 °F 100% 29.90 in 0.2 mi ENE 6.9 mph - N/A Fog Drizzle
10:16 PM 37.4 °F 32.1 °F 37.4 °F 100% 29.91 in 0.2 mi East 6.9 mph - N/A Fog Drizzle
10:41 PM 37.4 °F 30.8 °F 37.4 °F 100% 29.91 in 0.2 mi NE 9.2 mph - N/A Fog Drizzle
10:55 PM 37.0 °F 31.6 °F 36.9 °F 99% 29.91 in 0.2 mi ENE 6.9 mph - 0.00 in Fog Drizzle
10:56 PM 37.4 °F 32.1 °F 37.4 °F 100% 29.91 in 0.5 mi ENE 6.9 mph - N/A Fog Drizzle
11:15 PM 37.4 °F 31.4 °F 37.4 °F 100% 29.91 in 0.5 mi ENE 8.1 mph - N/A Fog Drizzle
11:32 PM 37.4 °F 32.8 °F 37.4 °F 100% 29.91 in 0.5 mi ENE 5.8 mph - N/A Fog Light Drizzle
11:42 PM 37.4 °F 31.4 °F 37.4 °F 100% 29.91 in 0.5 mi NE 8.1 mph - N/A Fog Light Drizzle
11:55 PM 37.2 °F 31.9 °F 37.0 °F 99% 29.91 in 0.5 mi ENE 6.9 mph - 0.00 in Fog Light Drizzle